DateTimeUTC,F1_A11,F1_S11,BsB_S11,BsG_S11,BsR_S11,BbsB_S11,BbsG_S11,BbsR_S11,BaB_A11,BaG_A11,BaR_A11,Tu_S11,T_S11,Uu_S11,U_S11,P_S11,T1_A11
2021-08-27T20:00:00Z,00000200,20000000,,,,,,,-000.10,0000.29,-000.18,19.3,25.9,07.2,04.8,0670.2,31.1
2021-08-27T20:01:00Z,00000200,20000000,,,,,,,0000.24,-000.39,0000.08,19.3,26.0,07.2,04.8,0670.2,31.1
2021-08-27T20:02:00Z,00000200,20000000,,,,,,,-000.39,0000.40,-000.11,19.3,26.0,07.2,04.8,0670.2,31.1
2021-08-27T20:03:00Z,00000200,60000000,,,,,,,0001.01,0000.34,0000.53,19.3,26.0,07.2,04.8,0670.2,31.1
2021-08-27T20:04:00Z,00000200,40000000,0003.69,0002.85,0002.25,0000.22,0000.25,0000.36,0000.53,0000.82,0000.72,19.4,25.8,07.5,05.1,0671.1,31.1
2021-08-27T20:05:00Z,00000200,00000000,0002.90,0002.93,0001.82,0000.05,0000.51,0000.32,0000.98,0000.97,0000.63,19.4,25.8,07.5,05.1,0671.2,31.1
2021-08-27T20:06:00Z,00000200,00000000,0003.34,0002.94,0002.24,0000.35,0000.30,0000.47,0000.77,0000.61,0000.59,19.4,25.8,07.5,05.1,0671.2,31.1
2021-08-27T20:07:00Z,00000200,00000000,0004.00,0002.52,0001.91,-000.34,0000.53,0000.30,0000.29,0000.56,0000.07,19.4,25.8,07.5,05.1,0671.2,31.1
2021-08-27T20:08:00Z,00000200,00000000,0004.16,0002.81,0002.34,0000.14,0000.50,0000.53,0000.71,0000.29,0000.36,19.4,25.7,07.5,05.1,0671.2,31.1
2021-08-27T20:09:00Z,00000200,00000000,0003.84,0002.95,0002.16,0000.61,0000.28,0000.35,0000.55,0000.81,0000.67,19.4,25.7,07.5,05.1,0671.2,31.1
2021-08-27T20:10:00Z,00000200,00000000,0004.03,0002.93,0001.78,0000.40,0000.48,0000.39,0000.30,0000.33,0000.65,19.4,25.7,07.5,05.1,0671.2,31.1
2021-08-27T20:11:00Z,00000200,00000000,0003.74,0002.79,0002.28,0000.48,0000.52,0000.19,0000.71,0000.35,0000.15,19.4,25.7,07.5,05.1,0671.2,31.1
2021-08-27T20:12:00Z,00000200,00000000,0003.35,0002.51,0002.27,0000.08,0000.63,0000.51,0000.63,0000.79,0000.66,19.4,25.7,07.5,05.1,0671.2,31.1
2021-08-27T20:13:00Z,00000200,00000000,0003.53,0002.64,0002.08,-000.34,0000.60,0000.23,0000.49,0000.43,0000.45,19.4,25.7,07.5,05.1,0671.2,31.1
2021-08-27T20:14:00Z,00000200,00000000,0003.74,0002.94,0002.21,0000.70,0000.43,0000.46,0000.57,0000.53,0000.38,19.4,25.7,07.4,05.0,0671.3,31.1
2021-08-27T20:15:00Z,00000200,00000000,0003.72,0002.70,0002.27,0000.02,0000.47,0000.32,0001.14,0000.85,0000.74,19.4,25.7,07.4,05.1,0671.2,31.1
2021-08-27T20:16:00Z,00000200,00000000,0003.36,0002.59,0002.03,0000.49,0000.52,0000.45,0000.11,0000.75,0001.01,19.4,25.7,07.4,05.1,0671.2,31.1
2021-08-27T20:17:00Z,00000200,00000000,0004.04,0002.82,0002.39,-000.05,0000.03,0000.47,0001.10,0000.71,0000.34,19.5,25.8,07.3,05.0,0671.2,31.1
2021-08-27T20:18:00Z,00000200,00000000,0003.72,0002.77,0002.23,0000.12,0000.42,0000.20,0000.70,0000.51,0000.41,19.6,25.8,07.2,05.0,0671.2,31.1
2021-08-27T20:19:00Z,00000200,00000000,0003.39,0003.10,0002.56,0000.41,0000.55,0000.33,0000.43,0000.41,0000.57,19.7,25.8,07.3,05.0,0671.2,31.1
2021-08-27T20:20:00Z,00000200,00000000,0004.21,0002.68,0002.10,0000.88,0000.19,0000.17,0000.61,0000.86,0000.54,19.7,25.9,07.4,05.1,0671.2,31.1
2021-08-27T20:21:00Z,00000200,00000000,0004.01,0003.00,0002.28,0000.49,0000.17,0000.32,0000.78,0000.42,0000.19,19.7,25.9,07.3,05.0,0671.2,31.1
2021-08-27T20:22:00Z,00000200,00000000,0004.39,0003.04,0002.08,0000.65,0000.08,0000.17,0000.59,0000.96,0000.59,19.6,25.9,07.3,05.0,0671.2,31.1
2021-08-27T20:23:00Z,00000200,00000000,0004.57,0002.81,0002.13,0000.70,0000.27,0000.44,0000.67,0000.34,0000.44,19.6,25.8,07.4,05.1,0671.2,31.1
2021-08-27T20:24:00Z,00000200,00000000,0003.68,0003.11,0002.17,0000.72,0000.49,0000.42,0001.13,0001.18,0000.82,19.6,25.8,07.4,05.1,0671.2,31.1
2021-08-27T20:25:00Z,00000200,00000000,0004.48,0002.96,0002.11,0000.38,0000.56,0000.30,0000.49,0000.23,0000.23,19.6,25.8,07.5,05.1,0671.1,31.1
2021-08-27T20:26:00Z,00000200,00000000,0004.27,0003.02,0002.15,0000.37,0000.55,0000.47,0000.76,0000.88,0000.84,19.6,25.8,07.4,05.1,0671.1,31.1
2021-08-27T20:27:00Z,00000200,00000000,0004.16,0003.15,0001.93,0000.53,0000.22,0000.30,0000.76,0000.84,0000.46,19.6,25.8,07.5,05.1,0671.1,31.1
2021-08-27T20:28:00Z,00000200,00000000,0003.35,0003.56,0002.23,-000.04,0000.47,0000.63,0000.63,0000.72,0000.73,19.6,25.8,07.6,05.2,0671.1,31.1
2021-08-27T20:29:00Z,00000200,00000000,0004.12,0003.02,0002.17,0000.59,0000.57,0000.22,0000.86,0000.61,0000.54,19.6,25.8,07.6,05.2,0671.1,31.1
2021-08-27T20:30:00Z,00000200,00000000,0004.13,0003.03,0002.23,0000.04,0000.36,0000.02,0000.68,0000.41,0000.39,19.5,25.8,07.6,05.2,0671.2,31.1
2021-08-27T20:31:00Z,00000200,00000000,0003.73,0003.12,0002.03,0000.32,0000.41,0000.47,0000.56,0000.90,0001.11,19.5,25.8,07.6,05.2,0671.1,31.1
2021-08-27T20:32:00Z,00000200,00000000,0004.35,0002.98,0002.20,0000.42,0000.51,-000.01,0001.06,0000.63,0000.32,19.5,25.8,07.5,05.2,0671.1,31.1
2021-08-27T20:33:00Z,00000200,00000000,0004.03,0002.59,0002.00,-000.15,0000.54,0000.57,0000.60,0000.98,0000.48,19.5,25.8,07.6,05.2,0671.1,31.1
2021-08-27T20:34:00Z,00000200,00000000,0004.38,0003.02,0002.21,0000.12,0000.23,0000.39,0000.59,0000.69,0000.50,19.5,25.8,07.7,05.2,0671.1,31.1
2021-08-27T20:35:00Z,00000200,00000000,0003.36,0002.75,0002.36,0000.24,0000.24,0000.16,0000.68,0000.46,0000.93,19.5,25.7,07.6,05.2,0671.1,31.1
2021-08-27T20:36:00Z,00000200,00000000,0003.75,0002.84,0002.05,0000.44,0000.50,0000.30,0000.75,0000.33,0000.19,19.5,25.7,07.8,05.3,0671.1,31.1
2021-08-27T20:37:00Z,00000200,00000000,0004.09,0002.82,0002.22,0000.06,0000.53,0000.28,0001.05,0001.06,0000.57,19.5,25.7,07.7,05.3,0671.1,31.1
2021-08-27T20:38:00Z,00000200,00000000,0003.94,0002.62,0002.12,0000.63,0000.43,0000.58,0000.50,0000.52,0000.72,19.4,25.7,07.8,05.3,0671.0,31.1
2021-08-27T20:39:00Z,00000200,00000000,0004.24,0002.72,0002.18,0000.25,0000.16,0000.39,0000.52,0001.04,0000.64,19.5,25.7,07.7,05.3,0671.1,31.1
2021-08-27T20:40:00Z,00000200,00000000,0003.73,0003.15,0001.87,0000.60,0000.29,0000.12,0000.60,0000.12,-000.09,19.4,25.7,07.7,05.3,0671.1,31.1
2021-08-27T20:41:00Z,00000200,00000000,0003.32,0002.83,0002.35,0000.14,0000.67,0000.51,0000.81,0000.50,0000.87,19.4,25.7,07.7,05.3,0671.1,31.1
2021-08-27T20:42:00Z,00000200,00000000,0003.68,0002.92,0001.95,0000.34,0000.33,0000.50,0000.73,0000.83,0000.65,19.4,25.7,07.7,05.2,0671.1,31.1
2021-08-27T20:43:00Z,00000200,00000000,0003.22,0002.94,0001.95,-000.12,0000.21,0000.35,0000.84,0000.37,0000.53,19.4,25.7,07.8,05.3,0671.1,31.1
2021-08-27T20:44:00Z,00000200,00000000,0003.91,0002.92,0002.30,0000.24,0000.36,-000.03,0000.72,0000.97,0000.72,19.4,25.7,07.8,05.3,0671.1,31.1
2021-08-27T20:45:00Z,00000200,00000000,0004.43,0002.90,0002.07,0000.04,0000.56,0000.33,0000.87,0000.55,0000.86,19.4,25.7,07.9,05.4,0671.1,31.1
2021-08-27T20:46:00Z,00000200,00000000,0004.37,0003.30,0001.95,0000.23,0000.48,0000.58,0000.70,0000.97,0000.45,19.5,25.7,07.9,05.4,0671.1,31.1
2021-08-27T20:47:00Z,00000200,00000000,0003.72,0002.70,0001.79,0000.02,0000.48,0000.32,0000.91,0000.79,0000.61,19.6,25.7,07.8,05.4,0671.1,31.1
2021-08-27T20:48:00Z,00000200,00000000,0004.22,0003.01,0002.38,0000.39,0000.37,0000.12,0000.37,0000.45,0000.43,19.6,25.8,07.8,05.4,0671.1,31.1
2021-08-27T20:49:00Z,00000200,00000000,0003.46,0003.01,0001.85,0000.09,0000.65,0000.45,0000.77,0000.75,0000.57,19.6,25.8,07.8,05.3,0671.1,31.1
2021-08-27T20:50:00Z,00000200,00000000,0003.69,0002.89,0002.38,-000.22,0000.22,0000.68,0000.83,0000.82,0000.36,19.7,25.8,07.9,05.4,0671.1,31.1
2021-08-27T20:51:00Z,00000200,00000000,0004.07,0002.91,0002.28,0000.17,0000.31,0000.44,0000.16,0000.33,0000.53,19.7,25.8,07.8,05.3,0671.1,31.1
2021-08-27T20:52:00Z,00000200,00000000,0002.90,0002.53,0001.92,0000.27,0000.51,0000.43,0000.53,0000.42,0000.49,19.6,25.8,07.9,05.4,0671.1,31.1
2021-08-27T20:53:00Z,00000200,00000000,0003.48,0002.84,0002.16,-000.32,0000.92,-000.08,0001.23,0001.18,0000.62,19.6,25.8,07.8,05.4,0671.1,31.1
2021-08-27T20:54:00Z,00000200,00000000,0003.56,0002.39,0002.17,-000.12,0000.44,0000.24,0000.82,0000.57,0000.58,19.6,25.8,07.8,05.4,0671.1,31.1
2021-08-27T20:55:00Z,00000200,00000000,0003.66,0002.72,0002.00,0000.12,0000.57,0000.15,0000.04,0000.61,0000.34,19.5,25.8,07.9,05.4,0671.1,31.1
2021-08-27T20:56:00Z,00000200,00000000,0003.40,0002.50,0001.95,0000.41,0000.29,0000.41,0000.94,0000.33,0000.40,19.6,25.8,07.8,05.4,0671.1,31.1
2021-08-27T20:57:00Z,00000200,40000000,,,,,,,0000.02,0000.19,0000.59,19.6,25.8,08.3,05.7,0671.1,31.1
2021-08-27T20:58:00Z,00000200,60000000,,,,,,,0000.01,-000.05,-000.59,19.3,25.9,07.8,05.2,0670.1,31.1
2021-08-27T20:59:00Z,00000200,20000000,,,,,,,0000.11,0000.12,0000.07,19.3,26.0,07.8,05.2,0670.1,31.1
